[Date Prev][Date Next][Thread Prev][Thread Next] - [Date Index][Thread Index][Author Index]
2 Line ISS Keps 2-3
- Subject: [sarex] 2 Line ISS Keps 2-3
- From: "Dave Larsen PhD" <doc@xxxxxxxxxxx>
- Date: Sun, 3 Feb 2002 10:55:24 -0800
ISS
1 25544U 98067A 02034.49866898 .00077513 00000-0 94469-3 0 323
2 25544 51.6397 5.0259 0006627 29.6855 104.9112 15.59780061183170
----
Via the sarex mailing list at AMSAT.ORG courtesy of AMSAT-NA.
To unsubscribe, send "unsubscribe sarex" to Majordomo@amsat.org
AMSAT Home